Location: Peterborough
(44.3091°N, 78.3197°W)
Time: 09:17:01
(UTC-04:00)

A-11 Canister half - Pass Details

Date: 15 September 2024
Orbit: 1515 x 1684 km, 47.2° (Epoch: 02 October)

Event Time Altitude Azimuth Distance (km) Brightness Sun altitude
Rises 00:52:32 0° 290° (WNW) 4,667 11.8 -42.7°
Reaches altitude 10° 00:55:34 10° 290° (WNW) 3,679 11.2 -42.8°
Enters shadow 00:59:35 30° 287° (WNW) 2,445 10.1 -42.8°
